Theta_e
336 332 336 342 335 335 337 336 332 331 334 335 334 336 340 340 338 340 343 343 345 345 345 350 350 346 346 345 345 345 347 348 344 341 341 340 340 340 339 340 339 340 340 340 340 341 341 342 343 345 346 346 347 347 348 346 345 343 341 339 338 338 338
337 337 338 340 337 336 335 333 333 335 336 336 335 336 340 339 337 338 341 342 344 342 343 350 351 348 347 345 345 346 348 348 345 342 341 340 339 340 339 340 339 340 340 340 341 341 341 341 343 344 345 345 346 346 347 347 346 344 342 341 340 338 338
338 340 338 338 339 337 335 335 335 336 336 337 338 337 337 337 334 335 339 342 342 341 342 348 350 350 349 347 346 347 348 349 347 344 341 339 339 340 339 339 340 339 340 340 340 340 340 341 343 343 345 345 346 346 347 348 347 345 344 343 341 340 339
335 340 338 336 337 336 335 338 336 334 337 338 339 338 334 332 333 334 337 338 339 341 345 348 349 350 350 348 346 346 348 350 348 345 342 340 339 339 339 339 339 339 340 340 340 340 340 340 342 343 345 345 345 346 346 347 347 347 346 345 343 341 340
332 339 339 334 337 338 335 336 334 333 334 335 337 338 334 332 332 333 333 332 335 343 349 349 350 349 349 348 346 346 348 349 347 346 343 340 339 339 339 339 339 340 340 340 340 340 340 340 342 343 345 345 345 346 346 347 348 348 347 346 343 342 342
329 333 331 326 330 336 335 335 335 335 334 333 335 336 334 330 331 332 332 331 335 345 349 349 350 350 348 349 348 347 348 347 347 346 345 343 340 339 339 339 339 340 339 340 340 340 340 341 342 343 344 345 345 346 346 347 348 347 346 345 344 343 342
323 324 325 322 323 330 333 333 335 335 335 335 334 333 332 330 330 333 332 331 337 346 349 349 350 350 349 350 349 348 348 348 347 346 346 345 342 341 340 339 339 340 339 340 340 340 340 341 342 343 343 345 345 346 345 347 347 345 344 344 344 343 343
324 322 325 325 325 328 329 329 334 334 332 333 333 332 332 330 328 332 332 331 337 347 349 351 352 352 351 350 349 349 348 348 348 346 346 345 344 343 341 341 340 339 339 340 340 340 340 341 342 343 343 344 345 345 346 346 347 346 345 344 344 344 343
322 322 324 328 330 330 327 329 337 338 335 334 331 331 331 328 328 333 331 329 338 347 349 349 351 351 351 351 350 349 348 348 347 347 346 345 344 344 343 342 341 340 340 340 340 340 340 341 342 342 343 344 344 345 345 346 347 347 347 347 346 346 345
322 325 328 331 334 334 331 334 341 342 340 337 332 329 328 327 330 334 332 332 342 350 350 349 348 349 350 350 350 349 349 348 348 348 347 345 345 344 343 343 342 341 340 340 340 340 341 341 341 342 343 343 344 344 345 346 347 347 348 347 348 348 348
329 332 333 334 336 337 338 340 342 343 341 339 336 328 325 328 330 331 336 341 347 351 351 349 349 347 347 349 349 350 350 349 349 348 346 345 344 345 344 344 343 342 341 341 341 341 341 342 342 342 342 343 343 345 345 346 347 347 348 348 348 348 349
334 335 333 332 333 335 337 338 339 342 342 337 333 328 330 333 327 327 340 348 348 351 352 350 350 349 348 348 349 349 349 349 349 347 345 344 345 344 344 344 343 342 342 342 342 342 342 343 342 342 343 343 343 344 344 345 347 347 348 348 348 348 348
334 334 332 330 331 331 333 334 334 338 341 338 334 335 337 336 328 331 345 351 351 352 351 348 348 349 348 349 350 350 350 350 348 347 346 344 344 344 344 345 345 344 344 344 343 344 344 343 344 343 343 344 344 344 345 345 346 347 347 348 348 348 348
335 334 333 332 332 331 331 331 332 335 339 342 341 341 341 338 338 343 349 350 351 350 347 346 347 348 349 349 349 349 350 349 346 346 346 345 345 345 344 345 345 345 345 344 344 344 345 344 344 344 344 344 344 344 345 345 346 346 347 347 348 348 348
333 334 333 332 332 331 331 332 332 333 337 341 343 344 343 343 346 348 348 350 351 348 346 346 346 347 348 349 349 348 349 348 346 345 346 346 347 347 346 346 346 346 345 345 345 345 345 345 345 345 345 345 344 344 345 345 346 346 347 348 348 348 348
332 333 333 332 330 331 334 335 333 333 335 340 344 345 345 346 348 348 348 350 351 348 346 347 346 347 347 347 348 347 347 348 348 347 347 347 347 347 347 347 347 346 347 347 346 346 345 345 346 346 346 346 345 345 345 345 345 346 346 347 348 347 348
330 331 333 332 329 330 335 337 334 332 333 337 342 345 344 344 347 349 349 349 348 347 346 346 347 346 345 344 345 346 346 347 347 347 347 347 347 348 348 347 347 347 347 347 347 346 346 345 345 345 346 346 346 346 346 346 346 347 347 347 348 347 348
330 331 330 331 329 328 334 338 335 332 332 334 338 342 341 340 344 347 348 347 346 345 345 345 345 344 343 343 343 344 345 345 345 345 346 346 347 347 347 348 347 347 347 346 346 346 345 345 345 345 345 346 347 347 346 347 347 347 348 347 348 348 348
330 330 327 331 333 331 332 335 333 332 332 332 334 336 337 337 340 343 345 345 344 344 344 343 343 342 342 342 342 343 343 343 344 344 344 345 346 346 347 347 347 347 347 347 346 346 346 346 347 347 346 346 346 347 346 346 348 348 349 349 348 348 348
327 328 328 331 334 332 330 329 330 331 332 332 334 337 336 335 336 340 343 344 344 343 342 341 342 342 341 340 341 341 341 341 342 342 343 344 344 344 346 346 347 347 347 348 348 347 346 346 347 347 347 347 347 348 348 348 349 349 350 350 349 350 350
327 329 330 331 333 333 333 331 329 329 330 332 336 339 338 334 334 338 341 343 343 342 342 341 340 340 341 340 340 339 339 340 341 341 342 342 343 344 344 345 345 346 347 347 348 348 347 346 345 344 345 345 345 345 345 346 348 349 350 350 351 351 350
327 329 331 333 334 334 334 331 327 327 329 330 332 337 339 336 336 339 341 341 342 343 342 341 339 339 341 342 340 338 338 338 339 341 341 342 343 343 343 344 345 345 346 347 347 347 348 347 347 346 345 345 344 344 344 344 346 348 349 349 350 351 351
327 327 328 333 334 333 331 329 327 328 329 328 330 336 339 336 336 341 341 341 342 342 341 341 340 340 342 342 338 336 336 337 337 339 340 341 341 342 342 343 344 344 344 345 346 347 348 348 348 348 347 346 346 346 345 345 346 346 347 347 348 349 348
327 326 325 329 331 330 329 328 329 329 329 328 330 333 335 335 336 340 341 341 342 340 339 340 340 341 341 340 336 334 333 333 335 337 338 339 339 340 341 342 342 343 343 344 345 346 347 347 347 348 347 347 347 347 347 346 346 346 347 347 347 348 346
328 326 325 327 329 330 330 329 329 329 327 328 327 328 332 335 337 339 340 340 340 339 339 339 339 338 337 335 333 331 328 330 334 337 337 338 339 339 340 341 341 341 342 343 344 345 345 345 346 346 346 347 347 347 346 347 347 347 348 347 347 347 346
327 327 326 326 326 328 329 329 329 327 325 325 328 331 333 335 337 337 338 338 338 339 339 339 338 336 334 332 331 328 324 326 332 335 335 336 338 338 339 340 340 341 341 341 341 342 342 343 343 344 345 345 345 345 345 345 346 346 347 347 347 346 346
327 327 327 327 327 328 328 328 328 328 328 330 333 335 336 336 336 337 337 338 338 338 338 338 336 335 332 331 331 328 322 320 325 329 330 332 335 337 339 339 338 339 339 340 340 340 340 341 341 342 343 343 342 343 343 343 344 344 345 346 346 345 346
326 327 328 329 330 328 327 329 330 331 333 335 336 337 337 336 336 337 337 337 337 337 337 337 336 334 332 332 330 327 322 317 316 319 321 321 324 329 334 336 337 337 337 337 337 337 338 339 340 340 341 340 339 339 340 340 340 342 343 344 344 344 344
326 328 329 330 330 328 328 330 332 333 335 336 337 338 337 336 336 336 337 337 337 337 337 337 336 334 333 331 328 326 322 317 314 313 314 314 315 318 323 328 332 334 335 335 334 335 335 335 337 337 338 338 337 335 336 337 338 340 341 341 341 341 341
327 328 329 329 330 330 330 332 334 335 336 337 338 338 338 337 336 336 336 337 337 337 337 336 335 334 331 329 327 325 322 319 316 314 312 312 313 312 313 316 320 324 326 327 328 328 328 328 329 331 333 334 333 331 330 332 335 337 337 337 337 336 336
329 330 330 330 330 331 332 334 335 336 337 337 338 338 338 337 337 337 337 337 336 337 336 335 334 333 331 328 327 326 325 323 320 317 315 313 312 312 312 312 312 313 314 315 315 316 316 316 317 320 323 326 327 325 324 326 329 331 332 332 331 330 329
328 330 330 329 329 331 333 335 336 336 338 337 337 337 336 336 336 336 336 336 336 335 335 333 333 332 329 327 327 327 327 325 324 323 321 317 314 314 314 314 313 312 312 312 311 310 310 310 310 310 312 315 316 316 318 323 326 327 327 327 327 326 325
329 329 329 329 330 331 333 334 335 336 337 337 337 336 336 336 336 335 335 335 335 334 334 333 331 329 328 327 328 327 327 326 326 326 325 321 316 315 316 315 314 314 313 313 313 313 312 311 310 308 308 308 308 309 313 319 324 325 326 326 326 326 325
330 330 331 330 331 333 333 334 335 336 336 337 336 337 336 336 336 335 334 334 333 332 332 331 328 326 326 326 327 326 326 326 326 327 327 324 319 316 316 316 314 314 315 316 317 318 317 317 316 315 313 311 309 309 310 312 315 318 321 320 320 323 326
328 330 331 329 331 333 332 332 334 335 335 336 336 336 336 336 336 334 333 332 331 330 330 329 327 326 327 328 328 326 325 326 326 326 327 326 322 317 316 316 316 315 316 318 319 319 320 320 320 320 319 318 317 315 314 313 312 312 312 311 312 317 322
326 328 329 327 330 332 331 330 332 333 334 334 335 335 336 335 336 335 332 330 329 329 329 330 330 331 331 331 330 328 327 326 327 327 327 327 324 319 317 318 318 318 319 319 320 321 321 321 320 321 321 320 320 319 318 318 316 314 313 311 311 313 318
325 327 328 327 329 330 329 328 329 330 330 330 331 334 335 335 335 335 333 331 330 330 330 331 332 332 333 332 330 329 328 327 328 327 327 327 326 323 319 319 321 322 322 322 323 323 323 322 322 322 321 321 320 321 321 320 319 318 316 314 313 313 315
Wind_Speed
8 9 8 8 6 5 4 4 4 1 1 1 1 0 1 1 3 2 3 4 3 2 2 2 3 5 10 12 16 20 18 15 18 20 25 30 32 34 35 34 34 34 33 31 29 27 26 25 24 23 21 20 21 21 21 21 21 20 20 19 19 19 19
1 4 10 8 2 3 4 4 4 4 3 1 1 2 2 2 3 1 3 5 3 2 1 1 3 5 9 11 13 16 15 15 19 21 25 31 33 35 36 34 34 34 33 31 30 28 26 25 24 22 20 19 19 20 20 21 21 21 20 19 18 19 19
3 5 9 7 2 1 1 3 5 4 2 1 1 2 3 3 3 1 3 4 3 2 1 2 1 5 8 10 12 13 13 16 19 20 24 30 32 33 35 34 34 34 33 32 30 28 27 26 25 23 21 20 19 19 19 19 20 20 19 19 18 18 18
2 5 6 5 5 3 4 5 4 1 1 3 2 2 4 3 2 1 1 2 0 1 2 6 6 6 9 11 12 13 14 15 18 21 25 29 30 33 34 34 34 34 33 32 30 29 27 26 26 25 23 21 20 19 18 19 19 19 19 19 18 17 18
2 4 2 3 4 4 4 5 5 3 3 4 4 4 6 4 3 2 2 1 1 2 3 7 8 7 8 12 12 13 17 19 21 23 26 28 30 33 34 34 34 34 33 32 31 29 28 27 27 27 25 23 21 20 18 18 19 19 20 19 18 17 18
2 2 0 3 3 2 3 2 5 5 3 4 4 4 4 3 3 3 2 2 1 2 4 6 7 6 7 12 12 12 18 23 25 24 25 27 30 31 33 34 33 33 33 32 31 30 29 28 28 28 27 25 23 21 19 18 19 20 20 20 19 18 18
1 1 1 3 4 3 5 2 3 4 3 4 3 3 1 1 3 2 2 2 0 2 6 7 6 6 5 10 12 11 14 20 26 27 25 26 29 30 31 31 32 33 33 32 31 31 30 28 28 28 28 26 24 22 20 18 18 18 18 18 18 18 18
2 3 5 4 5 2 6 1 1 2 2 3 2 3 2 4 5 2 2 3 1 3 7 9 8 6 1 5 10 11 11 14 21 26 26 26 28 29 29 29 31 32 32 32 32 31 30 29 28 28 28 26 25 23 21 19 18 17 17 16 17 17 17
4 4 4 2 6 4 1 2 3 3 1 4 1 3 2 4 5 3 4 4 1 3 6 9 9 8 6 4 5 9 10 13 17 21 25 27 28 28 29 28 29 30 31 32 32 31 29 28 28 28 27 26 26 24 22 20 19 18 17 16 16 16 16
2 2 2 1 4 5 5 5 6 6 1 4 2 3 3 4 3 2 3 3 1 4 7 9 9 8 8 7 3 4 7 12 16 18 22 26 27 28 29 28 28 29 30 31 30 30 29 28 28 28 27 26 26 24 23 21 20 19 18 17 16 15 16
4 5 5 3 3 3 5 8 9 8 4 5 5 4 4 4 2 3 2 1 2 4 8 9 9 8 7 6 5 2 4 7 12 16 20 23 24 25 26 27 28 29 29 29 28 29 29 28 28 27 26 26 26 25 24 22 20 20 19 18 17 16 16
9 9 8 7 8 7 7 10 11 10 6 5 9 6 2 1 3 4 2 2 3 4 7 7 8 7 5 6 5 3 3 5 9 14 18 21 20 20 20 22 25 26 27 27 26 27 27 27 28 28 27 26 26 26 25 24 22 21 20 19 19 17 17
10 9 7 8 8 6 7 9 12 12 9 5 8 4 2 3 4 2 5 6 4 4 5 6 7 7 6 6 5 5 5 7 10 13 16 19 18 17 16 17 19 21 22 23 24 24 25 26 26 27 27 27 27 27 26 26 24 22 21 20 20 19 18
9 6 6 8 7 3 6 7 10 13 12 7 3 4 4 5 3 5 10 9 6 5 4 5 7 7 8 7 6 7 7 9 12 14 14 15 16 16 15 14 13 14 15 17 20 21 22 23 24 26 27 28 27 27 27 26 25 24 22 21 21 20 20
5 5 5 6 3 2 3 4 9 13 13 9 2 6 7 5 6 9 11 10 7 4 4 7 8 9 10 10 10 9 8 8 11 12 11 10 10 10 10 9 9 9 11 13 16 19 21 23 23 25 26 27 28 28 27 27 26 25 23 22 21 21 21
3 5 5 2 3 5 1 5 8 11 11 8 2 5 5 4 8 11 10 8 5 4 6 9 10 12 13 13 13 12 10 9 10 11 9 7 5 4 5 6 6 8 10 12 14 17 20 22 24 25 26 27 28 28 28 28 27 26 25 24 23 22 21
4 5 3 3 5 3 1 4 4 6 11 11 3 4 6 4 4 8 6 5 5 6 7 8 10 13 13 13 13 13 12 13 12 12 10 6 4 3 4 5 5 6 8 10 13 15 18 20 23 25 26 27 28 28 27 28 27 26 26 26 25 24 22
3 3 1 3 1 2 2 2 4 2 6 12 8 4 6 7 3 5 7 8 9 9 8 9 11 14 15 15 15 15 14 13 13 13 12 9 6 3 2 4 5 6 6 7 9 11 14 16 18 21 23 25 26 25 25 25 26 26 28 28 27 26 24
2 1 3 1 0 1 2 1 3 5 4 7 9 8 8 8 5 6 10 10 10 11 11 12 14 17 18 20 20 18 16 15 14 14 13 11 8 5 1 2 4 6 7 8 9 10 11 11 11 13 16 19 20 20 21 22 23 25 26 27 27 27 25
2 1 1 0 1 1 3 4 1 3 1 3 6 6 6 7 7 3 8 10 11 12 13 12 12 14 16 19 21 19 17 16 16 16 15 12 9 6 3 0 2 3 5 7 9 10 13 13 10 8 10 13 13 13 13 15 17 20 22 24 25 25 24
1 1 0 1 1 1 2 3 1 2 2 2 2 4 3 2 4 4 4 8 10 11 12 10 7 7 11 14 16 17 16 14 14 14 14 13 11 9 6 4 1 1 2 4 5 6 10 14 13 11 11 12 11 11 11 12 13 16 17 18 19 20 20
1 1 1 1 0 1 2 3 2 2 4 5 5 2 3 1 3 3 2 6 9 11 9 7 3 2 6 8 10 14 15 14 14 13 13 12 11 10 8 6 4 2 1 2 4 5 5 8 10 11 12 11 11 12 14 15 15 15 14 13 14 15 16
2 2 2 2 2 1 2 4 3 3 5 6 8 5 1 2 4 3 3 5 7 7 7 7 3 3 5 5 7 11 14 15 15 15 14 13 13 12 11 9 8 6 4 1 1 1 2 2 2 3 4 6 8 11 12 14 15 14 13 13 12 12 13
3 3 2 1 1 0 2 2 1 3 4 6 6 2 2 3 4 2 0 3 4 4 5 7 6 5 5 6 8 11 14 17 17 16 16 16 16 16 15 14 12 10 8 5 3 4 2 2 3 2 3 6 8 9 9 11 12 12 14 15 15 15 16
3 3 2 1 1 1 1 2 4 2 3 5 3 2 3 4 3 1 2 4 4 5 6 9 11 12 13 13 14 14 16 19 19 18 18 17 17 17 16 15 14 14 15 14 11 7 5 4 5 4 4 5 6 5 5 7 8 10 13 16 16 16 16
1 1 1 1 0 2 3 5 3 1 2 2 0 2 3 4 3 3 5 5 6 8 12 15 16 17 18 18 17 17 18 19 19 19 19 19 18 18 17 16 16 17 18 19 18 16 13 10 8 6 6 7 7 6 6 5 5 6 6 7 9 11 12
1 1 2 1 1 2 4 4 1 2 2 0 4 5 4 4 5 6 7 8 10 14 17 18 18 18 19 18 17 18 18 19 19 19 19 19 20 19 19 19 19 19 20 21 21 21 19 17 15 12 11 13 14 13 13 11 10 10 9 8 8 8 8
1 2 2 0 1 2 4 3 1 1 2 5 6 6 6 6 6 8 11 12 14 16 18 18 18 19 18 17 16 17 18 18 18 18 19 19 20 20 20 20 20 21 22 23 23 23 22 20 19 18 17 18 20 21 19 15 12 11 11 9 9 9 10
1 1 1 2 2 3 3 1 2 4 6 7 6 6 8 9 8 11 14 15 16 16 16 16 17 18 17 16 16 17 18 18 17 18 18 19 19 19 19 19 19 20 21 22 22 23 22 21 20 20 19 19 22 24 23 19 17 16 14 12 12 13 14
1 1 2 2 2 3 3 4 5 6 8 8 8 9 10 10 10 11 13 16 17 16 15 16 17 18 17 17 17 18 18 19 18 18 18 18 18 18 19 19 18 18 18 19 20 20 20 19 19 19 18 19 21 22 20 18 18 17 17 17 18 20 20
3 2 2 2 2 3 4 6 7 8 9 11 11 11 12 12 12 12 14 16 17 17 16 17 18 18 17 17 18 19 19 19 19 19 19 19 18 19 19 19 18 18 18 19 19 19 19 18 17 17 17 18 18 17 16 15 14 14 14 15 17 18 19
1 2 3 2 3 4 5 6 8 9 11 14 15 15 15 16 15 15 15 16 16 16 16 17 17 17 17 17 18 18 18 18 18 18 19 20 20 20 20 19 19 20 20 21 20 20 19 17 15 15 15 16 15 14 14 13 11 10 12 13 14 16 17
2 2 3 5 5 5 5 7 9 11 12 15 17 17 17 17 16 16 16 15 15 15 15 15 17 17 17 17 17 16 16 16 15 16 17 19 19 20 19 19 19 20 21 22 22 23 22 20 18 17 16 16 15 14 14 12 10 10 11 12 13 15 16
2 3 9 10 5 4 6 8 11 13 13 15 17 16 15 15 15 16 17 16 14 13 13 15 17 18 17 16 15 14 14 13 13 13 15 17 18 19 19 19 19 19 20 22 22 22 22 21 20 20 19 18 17 16 15 13 11 10 9 9 11 13 14
0 7 16 14 6 7 12 13 12 14 14 14 15 15 14 14 14 16 18 18 16 15 15 15 16 16 15 14 12 12 12 12 11 11 12 13 15 17 18 18 18 18 18 18 18 18 18 18 17 18 17 17 17 17 16 15 13 12 10 9 9 11 12
3 13 19 15 9 13 17 16 14 15 14 14 16 15 15 15 15 15 17 18 18 18 17 15 14 14 13 12 11 11 12 11 11 11 11 11 13 14 15 15 16 16 15 14 13 14 14 14 14 14 14 14 14 14 14 14 14 14 13 11 11 11 10
8 18 18 13 13 18 20 17 16 16 14 14 16 16 15 16 15 15 15 16 17 16 16 14 13 11 11 12 12 12 12 12 12 12 12 11 11 11 11 12 12 12 11 10 9 9 9 9 10 10 10 10 10 10 11 11 11 11 11 11 11 10 9
Wind_Direction
190 197 161 160 180 159 149 177 190 174 71 144 205 174 111 266 267 212 189 240 267 262 247 180 166 178 181 182 188 199 202 192 187 188 190 196 200 204 209 211 213 213 213 214 216 216 215 212 210 209 207 205 202 200 198 196 198 200 204 206 207 209 211
194 199 157 154 203 163 156 189 169 107 63 44 295 241 202 224 261 212 200 252 280 267 272 105 162 175 175 179 183 190 188 181 188 192 193 196 199 204 208 212 214 215 215 216 217 219 218 216 213 211 209 206 205 204 203 201 201 201 204 208 209 210 211
98 160 159 148 151 169 91 126 141 133 168 152 38 273 239 227 260 262 209 248 275 249 289 10 251 205 188 183 182 185 181 180 189 191 192 197 199 202 206 208 212 215 216 218 219 220 221 219 218 216 213 211 209 209 208 209 208 206 206 209 212 213 212
111 161 178 177 167 134 79 111 137 95 119 133 107 271 274 271 266 297 262 246 187 184 319 325 294 242 201 186 184 189 186 184 188 188 191 196 197 200 203 206 211 215 218 220 221 222 223 221 220 219 218 216 214 213 212 213 214 213 211 212 214 216 216
187 182 188 206 186 157 138 150 168 174 137 135 149 232 268 277 272 289 299 287 92 81 338 309 296 272 217 195 190 190 189 193 193 189 192 196 197 201 204 207 212 216 219 221 222 224 224 223 221 220 221 220 217 217 217 216 216 215 214 214 214 216 217
206 204 250 281 292 112 131 184 186 178 158 146 170 226 241 245 265 279 293 302 348 43 348 322 308 295 237 206 200 192 189 195 198 195 195 197 198 202 205 208 212 215 219 221 222 223 223 223 223 222 223 223 221 220 218 217 218 216 215 215 215 214 216
5 354 35 328 324 126 142 218 202 165 153 155 189 228 235 300 295 284 286 287 170 34 355 345 334 318 254 209 203 196 187 192 198 200 200 201 203 206 207 208 211 215 220 221 222 224 224 223 224 224 225 226 225 222 220 218 218 215 213 215 217 217 216
105 102 104 50 2 126 158 164 77 151 168 145 199 254 342 322 292 282 286 268 129 40 5 3 6 8 12 189 193 193 185 186 195 199 203 205 205 207 209 209 211 215 218 219 221 224 224 224 225 226 228 228 228 225 222 220 218 214 212 214 218 220 219
130 120 134 79 10 6 354 0 5 335 23 116 153 291 321 288 273 266 276 269 76 32 11 16 23 38 57 88 169 189 189 187 191 194 199 204 205 207 208 209 212 215 216 218 222 224 225 225 226 228 229 230 230 228 224 221 219 216 214 215 219 221 222
155 121 122 31 344 322 317 339 345 336 315 169 217 271 227 242 249 188 250 270 80 34 15 24 29 36 48 57 96 170 187 191 191 189 193 198 200 204 208 209 211 214 215 219 223 224 225 226 227 230 231 231 232 230 227 224 221 220 219 219 221 224 226
109 103 89 51 5 329 332 347 345 337 307 214 217 239 228 239 238 200 235 303 106 45 17 21 26 30 40 46 60 121 169 181 184 186 190 193 195 199 204 206 208 211 214 218 221 224 226 227 229 232 233 233 233 232 229 226 223 223 224 224 225 227 229
110 111 97 70 45 24 1 1 353 340 325 218 207 224 221 189 248 236 163 124 131 55 21 17 23 26 35 39 43 80 139 156 165 175 182 187 189 192 196 201 205 209 213 216 220 223 225 228 231 233 234 235 235 233 231 228 225 224 225 227 228 229 230
122 115 95 80 58 10 339 3 2 346 332 253 210 213 197 199 246 228 131 132 118 61 25 17 24 23 28 36 45 72 107 132 143 153 165 173 181 186 190 196 202 207 212 215 218 222 225 229 232 234 235 236 236 236 234 231 228 228 228 229 231 231 232
122 112 92 88 75 353 318 353 359 347 333 293 221 122 145 183 161 124 129 120 92 65 30 28 34 35 46 54 61 71 89 118 132 137 146 157 167 178 188 196 202 210 217 222 225 226 228 230 233 236 236 237 237 237 236 234 232 231 231 233 235 234 233
115 121 97 81 74 274 287 354 358 352 335 295 234 110 122 143 131 132 131 114 89 65 58 59 54 53 58 59 60 63 72 101 123 127 127 136 147 158 177 193 205 218 229 236 236 235 235 235 236 238 239 240 239 238 238 238 235 233 234 236 237 237 235
139 142 116 91 242 226 173 30 6 352 330 292 224 106 97 130 151 148 131 110 98 83 81 77 68 63 57 48 50 58 62 76 97 110 115 127 139 144 174 202 215 226 235 240 239 237 237 239 240 241 242 243 242 241 241 240 238 236 236 238 240 241 239
138 123 130 215 238 225 91 36 20 354 326 309 310 71 49 39 147 153 129 106 100 88 82 78 70 65 57 46 46 54 58 64 72 82 93 105 116 146 192 210 220 232 241 246 245 241 238 237 238 240 241 242 243 244 245 244 243 240 239 240 242 244 242
117 89 306 249 259 21 41 94 131 158 295 301 310 1 20 9 32 116 107 100 97 85 77 76 73 70 66 59 54 54 57 62 65 66 69 72 74 78 201 217 227 238 247 254 252 247 241 237 237 238 239 239 240 241 243 246 247 246 243 242 243 245 245
105 62 315 286 130 7 7 72 143 166 229 282 300 320 346 357 12 90 102 100 96 89 83 81 80 76 70 63 57 54 55 59 64 66 65 65 68 64 54 228 235 244 248 250 250 248 240 228 220 224 229 233 235 236 239 244 249 249 246 245 246 247 247
119 157 304 267 233 297 334 334 350 128 152 278 286 298 332 350 346 31 100 105 99 92 87 83 84 81 71 61 54 50 52 56 60 65 66 66 69 73 73 136 234 244 252 256 256 251 239 226 212 202 204 210 216 222 230 242 250 250 249 249 249 249 248
139 156 130 29 326 310 313 306 306 135 162 221 265 293 320 330 306 322 88 109 110 107 96 80 76 82 73 60 46 40 46 55 59 64 69 68 68 69 66 61 55 287 280 284 284 268 239 226 221 217 209 206 212 220 228 239 247 249 248 247 248 248 249
127 140 124 108 163 210 181 177 176 209 215 185 175 237 316 255 227 240 151 135 134 127 102 57 25 105 79 59 39 37 50 64 68 71 75 73 71 70 65 61 59 49 355 280 289 298 269 232 217 214 216 217 223 230 233 236 240 244 245 243 244 245 244
161 186 198 168 188 209 141 155 182 251 243 193 178 183 256 245 231 221 169 152 135 119 79 40 41 130 101 68 51 50 61 71 74 74 75 73 71 68 64 59 53 49 52 54 254 290 300 267 186 185 207 216 222 227 230 233 236 238 240 242 239 233 231
173 196 216 205 218 152 114 156 259 287 240 205 204 206 122 172 219 269 142 127 101 77 58 51 64 92 101 97 83 72 73 75 75 75 74 73 72 70 68 65 61 60 64 77 122 146 141 124 118 130 197 218 223 223 224 232 235 235 237 238 234 232 238
180 200 197 213 269 96 88 327 326 312 200 204 243 334 82 131 167 351 63 96 82 65 75 84 87 90 98 103 97 85 78 76 76 76 75 75 75 75 75 75 75 76 78 81 92 106 115 128 136 151 183 195 201 204 213 227 230 230 234 235 229 228 234
151 192 190 241 235 98 22 340 333 177 214 250 345 63 87 105 104 90 96 102 99 97 100 103 104 103 104 102 95 86 80 79 81 82 80 80 80 81 84 85 83 84 83 81 81 81 80 85 95 116 144 143 136 139 140 135 140 163 193 205 202 207 213
103 173 187 214 187 80 13 345 268 194 283 30 109 105 92 85 89 98 107 114 118 117 113 111 112 111 107 101 94 88 83 82 84 84 83 83 83 84 87 87 85 85 84 80 77 75 75 77 84 96 108 108 106 110 110 105 108 119 126 130 140 154 160
238 192 165 143 351 8 358 335 258 121 110 130 128 115 105 103 105 110 115 121 124 123 119 116 116 114 109 102 96 92 86 84 84 84 83 82 82 82 83 84 84 85 84 81 79 78 79 81 84 88 92 93 91 87 84 84 89 97 106 116 125 126 122
274 355 52 33 355 353 0 44 103 107 124 135 132 119 115 114 116 118 121 125 127 125 122 120 118 115 111 106 101 96 91 88 87 86 84 82 81 81 82 81 82 83 83 83 82 79 78 78 79 82 86 88 86 80 76 78 83 87 92 98 102 101 100
152 42 32 31 25 27 51 90 103 109 120 127 126 120 117 116 117 120 123 128 131 131 129 125 121 118 114 108 103 99 93 90 87 85 84 83 81 81 81 80 80 80 80 79 78 76 74 71 73 76 79 81 80 76 72 72 76 82 89 92 93 92 92
169 135 104 86 67 69 84 96 102 107 116 127 130 123 116 117 118 118 120 126 131 133 131 126 121 118 114 110 107 102 95 92 90 87 85 84 82 80 79 78 79 81 81 79 78 76 73 70 70 74 78 79 78 75 72 71 72 76 79 81 84 85 84
122 102 111 104 97 110 117 117 121 121 122 130 131 122 117 118 117 117 121 126 130 131 128 125 121 117 115 114 111 106 100 96 94 89 85 84 83 81 79 79 80 82 82 81 80 79 77 76 75 75 77 79 79 79 80 81 83 82 77 74 75 78 78
108 91 147 148 122 117 130 133 133 133 130 132 132 126 121 121 120 121 126 129 132 130 126 124 121 117 117 118 113 108 104 99 94 90 86 85 85 84 84 83 83 83 83 82 82 81 80 79 79 78 78 78 80 83 85 87 92 92 85 78 77 78 80
161 157 170 171 148 126 150 147 139 139 137 135 134 131 128 126 124 126 128 129 130 130 126 125 123 119 120 121 116 109 106 101 97 93 87 85 87 89 88 89 88 88 87 86 84 82 80 77 76 75 75 76 77 79 83 85 88 89 86 82 80 81 82
136 157 168 171 147 129 149 149 138 138 139 137 137 137 134 133 130 130 130 129 127 126 124 124 124 121 120 121 120 118 116 110 107 104 94 88 91 92 93 94 94 94 92 88 82 78 76 73 70 68 68 69 69 70 72 75 78 81 83 85 88 88 88
141 159 165 167 145 138 149 147 137 138 138 136 138 138 137 138 137 134 132 130 127 127 127 125 124 121 117 117 123 127 126 121 121 120 112 102 98 98 98 98 98 98 96 89 81 77 73 69 66 62 60 59 59 61 63 64 67 71 76 81 89 96 99
158 159 159 159 150 148 149 144 139 141 139 134 134 135 136 139 139 138 136 133 131 132 133 131 128 122 117 118 123 127 126 124 124 126 125 120 113 108 107 104 101 101 100 93 86 81 74 67 63 59 56 54 53 54 56 56 57 61 66 72 80 89 98